Location: Friedrichstal
(49.1074°N, 8.4740°E)
Time: 23:20:04
(UTC+00:00)

Daily predictions for brighter satellites

Satellite Brightness Start Highest point End
(mag) Time Altitude Azimuth Time Altitude Azimuth Time Altitude Azimuth
Sich 1 Rocket 3.8 17:10:50 10° N 17:15:18 53° ENE 17:19:45 10° SSE
ATLAS 2AS CENTAUR R/B 4.0 17:10:22 10° W 17:16:20 30° NNW 17:22:14 10° NE
GP-B 3.1 17:12:16 10° S 17:16:38 87° E 17:21:02 10° N
Cosmos 2123 Rocket 4.3 17:11:46 10° SSW 17:18:05 76° W 17:24:25 10° N
SKYMED 2 3.9 17:14:48 10° NNE 17:19:01 46° E 17:23:12 10° S
Resurs 1-3 3.7 17:16:06 10° SE 17:20:15 50° ENE 17:24:25 10° N
IRS-1C 4.4 17:17:09 10° S 17:22:27 75° WSW 17:27:49 10° NNW
Lacrosse 5 rocket 2.3 17:20:52 10° W 17:24:01 31° NNW 17:27:15 10° NE
Resurs 01 Rocket 2.4 17:24:05 10° SE 17:27:52 29° ENE 17:31:40 10° N
Cosmos 1782 4.1 17:29:38 10° NNE 17:32:00 16° ENE 17:34:22 10° ESE
CZ-4 R/B 4.3 17:28:51 10° SSE 17:32:49 89° WSW 17:36:49 10° NNW
Cosmos 1674 Rocket 3.7 17:29:34 10° SSW 17:33:58 79° W 17:38:25 10° N
SPOT 1/Viking Rocket 3.7 17:28:51 10° SSE 17:33:58 80° WSW 17:39:08 10° NNW
USA 267 3.4 17:31:16 10° NE 17:37:51 82° NNW 17:44:24 10° WSW
CARTOSAT-1 3.8 17:34:20 10° SE 17:38:18 44° ENE 17:42:19 10° N
Radarsat Rocket 4.0 17:35:42 10° SSE 17:41:32 68° ENE 17:47:54 10° NNW
ARIANE 6 FM1 Upper Stage 3.7 17:39:40 10° NNW 17:43:03 26° NNE 17:45:29 15° ENE
Cosmos 2297 Rocket 2.2 17:41:04 10° SSW 17:46:42 70° ESE 17:52:20 10° NNE
Cosmos 1447 Rocket 4.4 17:41:59 10° S 17:48:04 75° E 17:54:14 10° NNE
RESURS DK-1 4.5 17:48:13 10° NNE 17:48:47 10° NE 17:49:21 10° NE
SPOT 5 4.1 17:52:21 14° ESE 17:55:18 23° ENE 17:59:17 10° N
SeaSat 1 3.3 17:52:16 10° SSE 17:57:04 54° WSW 18:01:53 10° NW
SJ-6B 3.1 17:55:05 10° SE 17:58:12 32° ENE 18:01:19 10° N
IRAS Rocket 4.5 17:53:18 10° SE 17:58:41 49° ENE 18:04:06 10° N
Tiangong 0.0 17:56:27 10° SW 17:58:43 18° S 18:00:16 13° SE
PSLV R/B 3.3 17:58:55 10° SSE 18:03:01 80° ENE 18:07:08 10° NNW
Cosmos 2228 3.1 18:00:10 10° N 18:04:15 50° ENE 18:08:20 10° SSE
COSMO-SKYMED 1 2.3 18:00:47 10° NNE 18:04:56 80° ESE 18:09:02 10° SSW
Meteor 1-31 Rocket 4.0 18:06:27 20° NE 18:06:27 20° NE 18:08:29 10° NNE
NOSS 3-3 (C) 4.1 18:00:41 10° SW 18:05:59 65° NW 18:12:24 10° NE
Cosmos 1544 Rocket 4.3 18:03:07 10° N 18:06:56 29° ENE 18:08:59 20° ESE
Cosmos 1570 Rocket 3.9 18:02:07 10° SSW 18:07:23 81° ESE 18:12:40 10° NNE
CZ-2D R/B 3.8 18:04:00 10° S 18:07:54 66° WSW 18:11:55 10° NNW
YAOGAN 3 4.4 18:04:10 10° SSE 18:08:21 73° ENE 18:12:33 10° N
Cosmos 2344 4.0 18:02:17 10° S 18:09:24 37° ESE 18:14:28 16° ENE
Cosmos 1513 Rocket 4.5 18:05:30 10° N 18:11:50 86° E 18:18:13 10° S
Cosmos 1455 Rocket 3.1 18:07:41 10° NNW 18:11:59 79° W 18:16:17 10° S
YAOGAN 1 3.4 18:07:56 10° S 18:12:05 53° W 18:16:17 10° NNW
Cosmos 2263 Rocket 2.9 18:08:32 10° SSE 18:13:28 32° ESE 18:16:41 18° NE
Cosmos 1975 Rocket 3.0 18:10:22 10° S 18:14:36 55° E 18:18:50 10° NNE
USA 234 4.4 18:09:40 10° SSE 18:15:49 43° SW 18:22:02 10° WNW
Cosmos 2034 Rocket 4.2 18:09:54 10° N 18:15:50 46° ENE 18:21:46 10° SSE
DMSP B5D1-3 4.5 18:11:02 10° NNE 18:16:07 62° ESE 18:21:10 10° S
Cosmos 1072 Rocket 4.4 18:10:36 10° N 18:16:52 73° E 18:22:59 10° SSE
Cosmos 2237 Rocket 3.0 18:15:19 10° NW 18:20:51 53° WSW 18:26:20 10° S
Cosmos 773 Rocket 3.9 18:18:34 10° SSW 18:23:50 86° ESE 18:29:09 10° NNE
NOAA 6 4.3 18:19:43 10° S 18:24:50 71° WSW 18:30:02 10° NNW
DNEPR-1 R/B 4.0 18:20:24 10° NW 18:25:16 88° SW 18:30:45 12° SE
Cosmos 2208 Rocket 4.0 18:24:32 10° SSW 18:29:47 89° ESE 18:35:09 10° NNE
Terra 3.5 18:31:23 17° NE 18:31:23 17° NE 18:33:19 10° NNE
CRYOSAT 2 4.5 18:28:55 10° N 18:33:49 79° W 18:38:42 10° SSW
Meteor 2-17 Rocket 4.4 18:29:58 10° S 18:36:02 87° W 18:42:08 10° N
Cosmos 1346 Rocket 2.4 18:35:03 10° S 18:38:38 71° E 18:40:09 33° NNE
Cosmos 44 Rocket 3.4 18:34:08 10° SW 18:39:04 79° NW 18:42:35 20° NE
TSX-5 4.2 18:36:02 10° NNW 18:41:13 58° NE 18:42:13 46° E
Cosmos 1602 3.7 18:39:37 10° SSW 18:42:18 50° WNW 18:43:15 32° NNW
Cosmos 1464 Rocket 4.1 18:36:33 10° N 18:42:57 82° W 18:49:14 10° S
CZ-4C R/B 3.5 18:39:52 10° W 18:44:04 31° NNW 18:48:40 13° NNE
Cosmos 2227 Rocket 2.1 18:40:27 10° SSW 18:46:06 86° ESE 18:51:30 12° NNE
SL-16 R/B 2.1 18:41:56 10° NNW 18:47:38 80° ENE 18:50:49 27° SE
Helios 1A Rocket 4.0 18:49:53 24° S 18:49:53 24° S 18:51:17 10° SSW
NOSS 3-4 (A) 4.5 18:44:57 10° NW 18:51:35 55° WSW 18:59:19 10° SSE
NOSS 3-4 (C) 4.5 18:45:14 10° NW 18:51:53 55° WSW 18:59:38 10° SSE
CZ-4 R/B 2.7 19:02:50 26° N 19:02:50 26° N 19:04:37 10° N
Lacrosse 5 rocket 2.8 18:58:42 10° NW 19:01:16 22° N 19:01:16 22° N
Resurs 01 Rocket 3.2 19:00:07 10° SSW 19:04:08 35° W 19:08:12 10° NNW
Cosmos 1782 3.8 19:03:33 10° NNW 19:06:56 39° W 19:09:32 15° SSW
BREEZE-M DEB (TANK) 4.1 19:02:56 10° SW 19:07:19 53° SE 19:11:13 35° E
ATLAS 2AS CENTAUR R/B 4.1 19:03:59 10° NW 19:09:24 24° N 19:11:46 20° NE
CZ-4B R/B 3.4 19:12:00 48° NE 19:12:00 48° NE 19:16:25 10° N
Gbstr 26 Del rocket 4.3 19:06:31 10° SW 19:13:20 62° SSE 19:15:03 50° E
CSL-04 Debris 4.1 19:12:12 35° SSE 19:14:34 88° WSW 19:20:02 10° NNW
CZ-4B DEB 4.0 19:14:53 59° SE 19:15:57 80° ENE 19:21:26 10° NNW
ERS-1 Rocket 3.7 19:20:01 39° NNE 19:20:01 39° NNE 19:23:22 10° N
CSL-04 Rocket 3.7 19:17:14 31° S 19:19:47 75° WSW 19:25:05 10° NNW
USA 267 3.9 19:17:48 32° NE 19:20:31 48° N 19:26:44 10° W
ARIANE 6 FM1 Upper Stage 3.4 19:18:26 10° NW 19:21:31 48° WNW 19:21:31 48° WNW
RESURS DK-1 4.3 19:23:13 10° NNW 19:24:45 21° NNW 19:24:45 21° NNW
Cosmos 2297 Rocket 4.1 19:26:31 10° W 19:31:15 27° NW 19:36:01 10° NNE
SPOT 5 3.4 19:31:23 42° SSW 19:32:49 58° W 19:37:52 10° NNW
Cosmos 1943 3.3 19:28:41 10° NNW 19:33:43 64° NNE 19:33:43 64° NNE
Okean O Rocket 4.1 19:39:04 12° N 19:39:04 12° N 19:39:26 10° N
Tsikada Rocket 3.9 19:29:14 10° S 19:35:23 83° W 19:41:37 10° N
Gblst 52 Del rocket 4.4 19:30:28 10° WNW 19:37:50 84° NNE 19:38:18 78° ENE
MOS 1 4.2 19:38:44 80° N 19:38:44 80° N 19:44:07 10° NNW
Cosmos 2219 3.8 19:41:27 10° SSW 19:45:34 49° SSW 19:45:34 49° SSW
ADEOS 4.3 19:53:49 49° NW 19:53:49 49° NW 19:57:41 10° NNW
Cosmos 2263 Rocket 2.9 19:51:38 10° SW 19:57:09 50° NW 19:58:28 42° NNW
Terra 3.8 20:10:00 22° NNW 20:10:00 22° NNW 20:11:45 10° NNW
Cosmos 2344 3.8 20:15:58 10° WSW 20:23:23 58° NW 20:24:33 52° N
Cosmos 2227 Rocket 4.3 20:26:29 10° W 20:30:53 23° NW 20:33:22 17° N
SL-16 R/B 4.4 20:27:15 10° WNW 20:31:02 19° W 20:32:45 16° WSW
CZ-4C R/B 4.3 20:30:01 10° NW 20:33:37 21° N 20:33:37 21° N
ATLAS 2AS CENTAUR R/B 4.2 20:55:42 10° NW 20:59:11 28° NNW 20:59:11 28° NNW
